| time (UTC) | temp F | wind direction | speed MPH | gust MPH | rain 1hr in | rain 24hr in | rain mn in | humidity % | barometer mb |
| 20260507094544 | 72 | 151 | 2.0 | 10.0 | 0.00 | 0.00 | 0.00 | 46 | 1005.9 |
| 20260507093042 | 71 | 115 | 6.0 | 9.0 | 0.00 | 0.00 | 0.00 | 42 | 1006.1 |
| 20260507091608 | 71 | 115 | 5.0 | 9.0 | 0.00 | 0.00 | 0.00 | 47 | 1006.1 |
| 20260507090050 | 71 | 128 | 1.0 | 8.0 | 0.00 | 0.00 | 0.00 | 46 | 1006.1 |
| 20260507084557 | 70 | 128 | 5.0 | 9.0 | 0.00 | 0.00 | 0.00 | 46 | 1006.1 |
| 20260507083053 | 69 | 111 | 5.0 | 11.0 | 0.00 | 0.00 | 0.00 | 46 | 1006.0 |
| 20260507081550 | 69 | 205 | 4.0 | 10.0 | 0.00 | 0.00 | 0.00 | 46 | 1006.0 |
| 20260507080049 | 68 | 132 | 4.0 | 10.0 | 0.00 | 0.00 | 0.00 | 45 | 1006.0 |
| 20260507074550 | 67 | 115 | 6.0 | 11.0 | 0.00 | 0.00 | 0.00 | 46 | 1005.8 |
| 20260507073051 | 68 | 165 | 2.0 | 7.0 | 0.00 | 0.00 | 0.00 | 48 | 1005.9 |
| 20260507071546 | 66 | 0 | 1.0 | 7.0 | 0.00 | 0.00 | 0.00 | 52 | 1006.1 |
| 20260507070100 | 64 | 91 | 1.0 | 9.0 | 0.00 | 0.00 | 0.00 | 54 | 1006.1 |
| 20260507064548 | 63 | 133 | 1.0 | 9.0 | 0.00 | 0.00 | 0.00 | 57 | 1006.0 |
| 20260507063051 | 61 | 0 | 3.0 | 7.0 | 0.00 | 0.00 | 0.00 | 60 | 1006.0 |
| 20260507061547 | 61 | 38 | 2.0 | 5.0 | 0.00 | 0.00 | 0.00 | 61 | 1005.9 |
| 20260507054554 | 59 | 134 | 2.0 | 7.0 | 0.00 | 0.00 | 0.00 | 65 | 1006.2 |
| 20260507053051 | 58 | 118 | 2.0 | 6.0 | 0.00 | 0.00 | 0.00 | 68 | 1006.0 |
| 20260507051549 | 56 | 124 | 3.0 | 10.0 | 0.00 | 0.00 | 0.00 | 70 | 1006.0 |
| 20260507050050 | 55 | 110 | 4.0 | 9.0 | 0.00 | 0.00 | 0.00 | 72 | 1006.0 |
| 20260507044548 | 54 | 128 | 4.0 | 9.0 | 0.00 | 0.00 | 0.00 | 74 | 1006.0 |
| 20260507043047 | 54 | 111 | 2.0 | 7.0 | 0.00 | 0.00 | 0.00 | 75 | 1006.0 |
| 20260507041547 | 52 | 0 | 3.0 | 8.0 | 0.00 | 0.00 | 0.00 | 77 | 1005.7 |
| 20260507040045 | 53 | 84 | 1.0 | 7.0 | 0.00 | 0.00 | 0.00 | 77 | 1005.6 |
| 20260507034558 | 52 | 36 | 4.0 | 8.0 | 0.00 | 0.00 | 0.00 | 77 | 1005.7 |
| 20260507033049 | 52 | 79 | 2.0 | 6.0 | 0.00 | 0.00 | 0.00 | 78 | 1005.6 |
| 20260507031552 | 52 | 61 | 2.0 | 8.0 | 0.00 | 0.00 | 0.00 | 78 | 1005.4 |
| 20260507030054 | 52 | 67 | 3.0 | 10.0 | 0.00 | 0.00 | 0.00 | 78 | 1005.3 |
| 20260507024554 | 52 | 34 | 3.0 | 6.0 | 0.00 | 0.00 | 0.00 | 78 | 1005.3 |
| 20260507023439 | 52 | 69 | 2.0 | 10.0 | 0.00 | 0.00 | 0.00 | 77 | 1005.3 |
| 20260507020054 | 52 | 23 | 3.0 | 7.0 | 0.00 | 0.00 | 0.00 | 76 | 1005.2 |
| 20260507014550 | 53 | 0 | 2.0 | 9.0 | 0.00 | 0.00 | 0.00 | 75 | 1005.1 |
| 20260507013052 | 53 | 54 | 3.0 | 6.0 | 0.00 | 0.00 | 0.00 | 75 | 1005.1 |
| 20260507011548 | 53 | 67 | 2.0 | 6.0 | 0.00 | 0.00 | 0.00 | 75 | 1005.1 |
| 20260507010105 | 54 | 41 | 2.0 | 5.0 | 0.00 | 0.00 | 0.00 | 73 | 1005.1 |
| 20260507004549 | 55 | 53 | 2.0 | 7.0 | 0.00 | 0.00 | 0.00 | 70 | 1005.0 |
| 20260507003052 | 55 | 0 | 1.0 | 7.0 | 0.00 | 0.00 | 0.00 | 67 | 1004.8 |
| 20260507001557 | 56 | 0 | 1.0 | 6.0 | 0.00 | 0.00 | 0.00 | 65 | 1004.7 |
| 20260507000056 | 56 | 0 | 1.0 | 4.0 | 0.00 | 0.00 | 0.00 | 64 | 1004.8 |
| 20260506234550 | 56 | 130 | 1.0 | 4.0 | 0.00 | 0.00 | 0.00 | 63 | 1004.8 |
| 20260506233100 | 57 | 134 | 0.0 | 5.0 | 0.00 | 0.00 | 0.00 | 63 | 1004.9 |
| 20260506231550 | 56 | 135 | 2.0 | 4.0 | 0.00 | 0.00 | 0.00 | 64 | 1005.0 |
| 20260506230052 | 56 | 138 | 2.0 | 5.0 | 0.00 | 0.00 | 0.00 | 66 | 1005.0 |
| 20260506224553 | 56 | 0 | 2.0 | 7.0 | 0.00 | 0.00 | 0.00 | 67 | 1005.0 |
| 20260506223058 | 56 | 0 | 1.0 | 6.0 | 0.00 | 0.00 | 0.00 | 67 | 1005.0 |
| 20260506221550 | 57 | 171 | 3.0 | 6.0 | 0.00 | 0.00 | 0.00 | 65 | 1005.0 |
| 20260506220053 | 58 | 169 | 3.0 | 7.0 | 0.00 | 0.00 | 0.00 | 64 | 1004.9 |
| 20260506214601 | 58 | 170 | 3.0 | 7.0 | 0.00 | 0.00 | 0.00 | 64 | 1004.8 |
| 20260506213049 | 58 | 152 | 2.0 | 10.0 | 0.00 | 0.00 | 0.00 | 65 | 1004.9 |
| 20260506211554 | 59 | 126 | 3.0 | 9.0 | 0.00 | 0.00 | 0.00 | 65 | 1004.7 |
| 20260506210053 | 59 | 171 | 1.0 | 9.0 | 0.00 | 0.00 | 0.00 | 64 | 1004.9 |
| 20260506204554 | 60 | 159 | 4.0 | 8.0 | 0.00 | 0.00 | 0.00 | 64 | 1004.8 |
| 20260506203051 | 60 | 162 | 3.0 | 8.0 | 0.00 | 0.00 | 0.00 | 68 | 1004.8 |
| 20260506201552 | 60 | 154 | 2.0 | 7.0 | 0.00 | 0.00 | 0.00 | 68 | 1004.8 |
| 20260506200057 | 61 | 157 | 3.0 | 9.0 | 0.00 | 0.00 | 0.00 | 68 | 1004.7 |
| 20260506194553 | 61 | 159 | 4.0 | 8.0 | 0.00 | 0.00 | 0.00 | 67 | 1004.7 |
| 20260506193054 | 62 | 170 | 3.0 | 8.0 | 0.00 | 0.00 | 0.00 | 66 | 1004.6 |
| 20260506191554 | 63 | 153 | 2.0 | 8.0 | 0.00 | 0.00 | 0.00 | 64 | 1004.5 |
| 20260506190051 | 63 | 139 | 5.0 | 10.0 | 0.00 | 0.00 | 0.00 | 63 | 1004.3 |
| 20260506184545 | 64 | 156 | 2.0 | 10.0 | 0.00 | 0.00 | 0.00 | 62 | 1004.3 |
| 20260506183051 | 66 | 142 | 3.0 | 13.0 | 0.00 | 0.00 | 0.00 | 59 | 1004.2 |
| 20260506181551 | 67 | 157 | 5.0 | 12.0 | 0.00 | 0.00 | 0.00 | 56 | 1004.0 |
| 20260506180047 | 68 | 108 | 8.0 | 16.0 | 0.00 | 0.00 | 0.00 | 53 | 1003.7 |
| 20260506174555 | 69 | 139 | 4.0 | 12.0 | 0.00 | 0.00 | 0.00 | 53 | 1003.6 |
| 20260506173111 | 70 | 135 | 5.0 | 11.0 | 0.00 | 0.00 | 0.00 | 53 | 1003.5 |
| 20260506171552 | 71 | 136 | 4.0 | 12.0 | 0.00 | 0.00 | 0.00 | 51 | 1003.5 |
| 20260506170051 | 71 | 191 | 5.0 | 13.0 | 0.00 | 0.00 | 0.00 | 50 | 1003.5 |
| 20260506164546 | 72 | 109 | 4.0 | 9.0 | 0.00 | 0.00 | 0.00 | 49 | 1003.5 |
| 20260506163054 | 73 | 154 | 4.0 | 14.0 | 0.00 | 0.00 | 0.00 | 47 | 1003.4 |
| 20260506161550 | 74 | 144 | 3.0 | 12.0 | 0.00 | 0.00 | 0.00 | 46 | 1003.4 |
| 20260506160052 | 75 | 153 | 7.0 | 13.0 | 0.00 | 0.00 | 0.00 | 45 | 1003.3 |
| 20260506154551 | 75 | 143 | 2.0 | 11.0 | 0.00 | 0.00 | 0.00 | 44 | 1003.3 |
| 20260506153047 | 76 | 148 | 2.0 | 10.0 | 0.00 | 0.00 | 0.00 | 42 | 1003.3 |
| 20260506151547 | 76 | 110 | 6.0 | 9.0 | 0.00 | 0.00 | 0.00 | 42 | 1003.4 |
| 20260506144603 | 78 | 161 | 2.0 | 10.0 | 0.00 | 0.00 | 0.00 | 40 | 1003.5 |
| 20260506143054 | 77 | 136 | 5.0 | 10.0 | 0.00 | 0.00 | 0.00 | 40 | 1003.4 |
| 20260506141546 | 77 | 150 | 4.0 | 9.0 | 0.00 | 0.00 | 0.00 | 40 | 1003.6 |
| 20260506140104 | 77 | 127 | 4.0 | 10.0 | 0.00 | 0.00 | 0.00 | 40 | 1003.5 |
| 20260506134546 | 77 | 128 | 5.0 | 9.0 | 0.00 | 0.00 | 0.00 | 41 | 1003.6 |
| 20260506133102 | 78 | 144 | 4.0 | 10.0 | 0.00 | 0.00 | 0.00 | 40 | 1003.7 |
| 20260506131547 | 77 | 161 | 5.0 | 12.0 | 0.00 | 0.00 | 0.00 | 41 | 1003.7 |
| 20260506130134 | 78 | 136 | 2.0 | 11.0 | 0.00 | 0.00 | 0.00 | 41 | 1003.8 |
| 20260506124552 | 78 | 208 | 3.0 | 8.0 | 0.00 | 0.00 | 0.00 | 41 | 1003.9 |
| 20260506123052 | 79 | 133 | 3.0 | 8.0 | 0.00 | 0.00 | 0.00 | 40 | 1004.0 |
| 20260506121555 | 79 | 192 | 2.0 | 7.0 | 0.00 | 0.00 | 0.00 | 39 | 1004.1 |
| 20260506120055 | 77 | 211 | 4.0 | 9.0 | 0.00 | 0.00 | 0.00 | 40 | 1004.3 |
| 20260506114547 | 76 | 159 | 5.0 | 10.0 | 0.00 | 0.00 | 0.00 | 42 | 1004.4 |
| 20260506113050 | 76 | 169 | 2.0 | 12.0 | 0.00 | 0.00 | 0.00 | 42 | 1004.3 |
| 20260506111547 | 77 | 205 | 2.0 | 10.0 | 0.00 | 0.00 | 0.00 | 41 | 1004.4 |
| 20260506110050 | 75 | 83 | 4.0 | 12.0 | 0.00 | 0.00 | 0.00 | 43 | 1004.4 |
| 20260506104554 | 75 | 139 | 4.0 | 10.0 | 0.00 | 0.00 | 0.00 | 45 | 1004.5 |
| 20260506103044 | 74 | 138 | 6.0 | 12.0 | 0.00 | 0.00 | 0.00 | 45 | 1004.5 |
| 20260506101550 | 74 | 119 | 5.0 | 11.0 | 0.00 | 0.00 | 0.00 | 44 | 1004.7 |
| 20260506100103 | 73 | 179 | 6.0 | 12.0 | 0.00 | 0.00 | 0.00 | 45 | 1004.7 |